Regional Weather Roundup
Issued by NWS Jackson, KY

Home | Current Version | Previous Version | Graphics & Text | Print | Product List | Glossary Off
Versions: 1 2 3 4 5 6 7 8 9 10 11 12 13 14 15 16 17 18 19 20 21 22 23 24 25 26 27 28 29 30 31 32 33 34 35 36 37 38 39 40 41 42 43 44 45 46 47 48 49 50

000
ASUS43 KJKL 042310
RWRJKL

EAST KENTUCKY HOURLY WEATHER ROUNDUP
NATIONAL WEATHER SERVICE JACKSON KY
700 PM EDT FRI SEP 04 2015

NOTE: "FAIR" INDICATES FEW OR NO CLOUDS BELOW 12,000 FEET WITH
NO SIGNIFICANT WEATHER AND/OR OBSTRUCTIONS TO VISIBILITY.

* THESE REPORTS ARE NOT UNDER NWS QUALITY CONTROL AND MAY NOT
  REPORT WEATHER SUCH AS PRECIPITATION AND FOG.

KYZ079-080-083-085-087-088-110-112-115-119-120-050000
...EASTERN KENTUCKY...

CITY           SKY/WX    TMP DP  RH WIND       PRES   REMARKS
JACKSON        MOSUNNY   82  67  60 CALM      30.07R
LONDON         SUNNY     89  63  41 N6        30.05R HX  90
SOMERSET*      SUNNY     86  64  48 CALM      30.04R
MONTICELLO*    SUNNY     88  70  55 CALM      30.05S HX  93
WILLIAMSBURG*  SUNNY     84  66  54 N3        30.04
MIDDLESBORO*   SUNNY     85  69  57 W3        30.03R
HARLAN APT*      N/A     84  64  51 MISG      30.06R
HAZARD APT*    CLEAR     84  66  54 CALM      30.06R
BLACK MTN*       N/A     72  63  73 N3          N/A
PIKEVILLE APT* SUNNY     81  70  69 N3        30.08R
BIG SANDY*     PTCLDY    82  68  62 N3        30.07R
MOREHEAD APT*  PTCLDY    84  68  58 VRB5      30.07R
$$

KYZ035-036-041-042-044-050-067-078-099-050000
...CENTRAL KENTUCKY...

CITY           SKY/WX    TMP DP  RH WIND       PRES   REMARKS
MT STERLING*   SUNNY     88  66  48 NE3       30.06R HX  90
FLEMING/MASON* SUNNY     86  68  54 E6        30.06R
DANVILLE*      SUNNY     88  61  40 CALM      30.04S
RICHMOND*      SUNNY     90  59  35 E3        30.03R
LEXINGTON      SUNNY     91  64  40 NW3       30.04R HX  92
FRANKFORT      SUNNY     89  65  44 NW5       30.02R HX  91
$$

KYZ091>093-OHZ055-061-077-WVZ005-015-034-035-042-050000
...SOUTHERN OHIO/WEST VIRGINIA...

CITY           SKY/WX    TMP DP  RH WIND       PRES   REMARKS
COVINGTON      PTSUNNY   82  63  51 NE29G41   30.05R THUNDER
COLUMBUS       LGT RAIN  69  67  93 SE6       30.08R
DAYTON         CLOUDY    70  68  93 NW15G28   30.11R
WILMINGTON     LGT RAIN  71  65  81 VRB3      30.08S
HUNTINGTON     MOSUNNY   77  69  76 CALM      30.05R
CHARLESTON     PTCLDY    85  65  51 NE6       30.05R
PINEVILLE*     PTCLDY    77  70  80 MISG      30.14R
BECKLEY        MOCLDY    79  64  60 NE3       30.14R
BLUEFIELD      MOCLDY    74  65  73 CALM      30.17R
$$

VAZ002-007-008-TNZ017-027-036-066-071-050000
...SOUTHWEST VIRGINIA/EAST TENNESSEE...

CITY           SKY/WX    TMP DP  RH WIND       PRES   REMARKS
WISE*          SUNNY     81  59  47 N5        30.15R
JONESVILLE*    CLEAR     86  66  51 CALM      30.06S
ABINGDON*      PTCLDY    84  60  43 SE6       30.09S
BRISTOL        PTCLDY    87  64  46 CALM      30.05R
KNOXVILLE      MOSUNNY   88  62  41 NE7       30.00R
OAK RIDGE      SUNNY     90  65  43 N3        30.02R HX  92
CROSSVILLE     SUNNY     84  65  52 N3        30.07F
NASHVILLE      MOSUNNY   92  60  34 CALM      29.99F HX  91
$$

...KEY TO REMARKS...
VSB - VISIBILITY IN MILES
WCI - WIND CHILL INDEX
HX  - HEAT INDEX

$$



USA.gov is the U.S. government's official web portal to all federal, state and local government web resources and services.